Date String (YYYY-MM-DD hh:mm:ss) UTC,Instrument flags,absolute air pressure of the measurement (hPa),sample flow rate (lpm),inlet stack bypass flow (lpm),air temperature of the measurement (°C),ambient temperature measured by the external sensor (°C),aerosol sample conditioner tube jacket temperature (°C),OPC LED temperature (°C),internal box temperature (°C),relative humidity of the measurement (%),span deviation,mass concentration of particles derived from Lorenz-Mie calculation of OPC scattering (μg/m³),mass concentration of particles derived from Lorenz-Mie calculation of OPC scattering (μg/m³),mass concentration of particles derived from Lorenz-Mie calculation of OPC scattering (μg/m³)
DateTimeUTC,F1_M11,P_M11,Q1_M11,Q2_M11,T1_M11,T2_M11,T3_M11,T4_M11,T5_M11,U1_M11,ZSPAN_M11,X2_M11,X0_M11,X1_M11
2024-05-23 23:00:00,SystemResetWarning,0816.9,5.00,000.00,029.3,027.3,000.0,038.0,030.7,013.1,0000.0,0004.44,0016.19,0003.12
2024-05-23 23:01:00,SystemResetWarning,0816.9,5.01,000.00,029.3,027.6,000.0,037.9,030.8,013.3,0000.0,0004.50,0016.44,0003.14
2024-05-23 23:02:00,SystemResetWarning,0816.9,4.98,000.00,029.4,027.9,000.0,037.9,031.0,013.2,0000.0,0004.58,0016.72,0003.14
2024-05-23 23:03:00,SystemResetWarning,0816.9,4.99,000.00,029.4,028.2,000.0,037.9,031.1,013.2,0000.0,0004.62,0017.24,0003.15
2024-05-23 23:04:00,SystemResetWarning,0816.9,5.02,000.00,029.5,028.5,000.0,037.9,031.2,013.3,0000.0,0004.63,0016.95,0003.15
2024-05-23 23:05:00,SystemResetWarning,0816.9,5.00,000.00,029.5,028.7,000.0,037.9,031.3,013.5,0000.0,0004.67,0016.62,0003.15
2024-05-23 23:06:00,SystemResetWarning,0816.9,5.00,000.00,029.6,028.8,000.0,037.9,031.3,013.8,0000.0,0004.70,0016.52,0003.16
2024-05-23 23:07:00,SystemResetWarning,0816.9,5.01,000.00,029.6,029.0,000.0,037.9,031.4,013.5,0000.0,0004.72,0016.45,0003.17
2024-05-23 23:08:00,SystemResetWarning,0816.9,4.99,000.00,029.7,029.1,000.0,037.9,031.5,013.3,0000.0,0004.78,0016.70,0003.18
2024-05-23 23:09:00,SystemResetWarning,0817.1,5.00,000.00,029.7,029.2,000.0,038.0,031.6,013.6,0000.0,0004.80,0016.54,0003.18
2024-05-23 23:10:00,SystemResetWarning,0816.9,5.00,000.00,029.8,029.3,000.0,038.0,031.6,013.3,0000.0,0004.89,0016.16,0003.18
2024-05-23 23:11:00,SystemResetWarning,0817.0,5.01,000.00,029.9,029.4,000.0,038.1,031.7,013.1,0000.0,0004.88,0016.33,0003.17
2024-05-23 23:12:00,SystemResetWarning,0817.2,5.00,000.00,029.9,029.5,000.0,038.1,031.7,013.2,0000.0,0004.86,0017.22,0003.16
2024-05-23 23:13:00,SystemResetWarning,0817.0,5.00,000.00,030.0,029.5,000.0,038.1,031.8,012.9,0000.0,0004.79,0017.54,0003.15
2024-05-23 23:14:00,SystemResetWarning,0817.0,5.00,000.00,030.0,029.6,000.0,038.2,031.9,012.5,0000.0,0004.84,0017.67,0003.14
2024-05-23 23:15:00,SystemResetWarning,0817.1,5.00,000.00,030.1,029.6,000.0,038.2,031.9,012.4,0000.0,0004.86,0019.06,0003.15
2024-05-23 23:16:00,SystemResetWarning,0817.3,5.00,000.00,030.1,029.7,000.0,038.2,031.9,012.6,0000.0,0004.90,0019.37,0003.15
2024-05-23 23:17:00,SystemResetWarning,0817.4,5.00,000.00,030.2,029.7,000.0,038.3,032.0,013.0,0000.0,0004.88,0019.01,0003.16
2024-05-23 23:18:00,SystemResetWarning,0817.7,5.00,000.00,030.2,029.8,000.0,038.3,032.0,013.0,0000.0,0004.85,0020.14,0003.16
2024-05-23 23:19:00,SystemResetWarning,0817.9,4.99,000.00,030.2,029.4,000.0,038.4,031.8,013.1,0000.0,0004.83,0019.80,0003.15
2024-05-23 23:20:00,SystemResetWarning,0817.9,5.00,000.00,029.9,027.0,000.0,038.4,030.7,012.9,0000.0,0004.83,0020.04,0003.15
2024-05-23 23:21:00,SystemResetWarning,0818.1,5.02,000.00,029.6,026.6,000.0,038.4,030.3,013.2,0000.0,0004.78,0020.87,0003.15
2024-05-23 23:22:00,SystemResetWarning,0818.2,4.99,000.00,029.5,026.9,000.0,038.3,030.5,013.3,0000.0,0004.76,0021.01,0003.16
2024-05-23 23:23:00,SystemResetWarning,0818.2,5.00,000.00,029.5,027.3,000.0,038.2,030.8,013.4,0000.0,0004.73,0020.59,0003.15
2024-05-23 23:24:00,SystemResetWarning,0818.4,5.01,000.00,029.5,027.7,000.0,038.1,031.0,013.2,0000.0,0004.70,0019.80,0003.15
2024-05-23 23:25:00,SystemResetWarning,0818.5,5.00,000.00,029.5,028.0,000.0,038.1,031.1,013.3,0000.0,0004.64,0018.38,0003.16
2024-05-23 23:26:00,SystemResetWarning,0818.7,4.99,000.00,029.6,028.3,000.0,038.0,031.2,013.4,0000.0,0004.65,0018.52,0003.16
2024-05-23 23:27:00,SystemResetWarning,0818.6,5.00,000.00,029.6,028.5,000.0,038.0,031.3,013.4,0000.0,0004.55,0018.71,0003.15
2024-05-23 23:28:00,SystemResetWarning,0818.7,5.00,000.00,029.7,028.7,000.0,038.0,031.4,013.5,0000.0,0004.55,0019.06,0003.14
2024-05-23 23:29:00,SystemResetWarning,0818.7,5.01,000.00,029.8,028.9,000.0,038.0,031.5,013.4,0000.0,0004.53,0017.75,0003.14
2024-05-23 23:30:00,SystemResetWarning,0818.9,5.01,000.00,029.8,029.0,000.0,038.0,031.5,013.2,0000.0,0004.50,0016.50,0003.15
2024-05-23 23:31:00,SystemResetWarning,0818.7,5.00,000.00,029.9,029.2,000.0,038.0,031.6,013.2,0000.0,0004.50,0016.46,0003.15
2024-05-23 23:32:00,SystemResetWarning,0818.7,5.00,000.00,029.9,029.3,000.0,038.1,031.7,013.1,0000.0,0004.50,0015.59,0003.14
2024-05-23 23:33:00,SystemResetWarning,0818.7,5.00,000.00,030.0,029.4,000.0,038.1,031.8,013.2,0000.0,0004.51,0014.70,0003.13
2024-05-23 23:34:00,SystemResetWarning,0818.6,5.00,000.00,030.0,029.4,000.0,038.1,031.8,013.4,0000.0,0004.47,0014.84,0003.11
2024-05-23 23:35:00,SystemResetWarning,0818.6,4.99,000.00,030.1,029.5,000.0,038.1,031.8,013.5,0000.0,0004.42,0014.44,0003.10
2024-05-23 23:36:00,SystemResetWarning,0818.5,5.00,000.00,030.1,029.6,000.0,038.2,031.9,013.6,0000.0,0004.43,0014.51,0003.07
2024-05-23 23:37:00,SystemResetWarning,0818.5,5.00,000.00,030.2,029.7,000.0,038.2,031.9,013.3,0000.0,0004.38,0015.26,0003.01
2024-05-23 23:38:00,SystemResetWarning,0818.5,5.01,000.00,030.2,029.7,000.0,038.2,032.0,013.3,0000.0,0004.26,0013.11,0002.95
2024-05-23 23:39:00,SystemResetWarning,0818.5,5.00,000.00,030.3,029.8,000.0,038.3,032.0,013.3,0000.0,0004.23,0012.61,0002.92
2024-05-23 23:40:00,SystemResetWarning,0818.5,4.99,000.00,030.3,029.1,000.0,038.4,031.6,013.2,0000.0,0004.18,0011.72,0002.89
2024-05-23 23:41:00,SystemResetWarning,0818.5,5.00,000.00,029.9,026.9,000.0,038.4,030.5,013.5,0000.0,0004.16,0012.41,0002.84
2024-05-23 23:42:00,SystemResetWarning,0818.5,5.01,000.00,029.6,026.7,000.0,038.4,030.3,013.6,0000.0,0004.10,0013.39,0002.79
2024-05-23 23:43:00,SystemResetWarning,0818.6,5.01,000.00,029.5,027.0,000.0,038.2,030.5,013.7,0000.0,0004.02,0013.40,0002.77
2024-05-23 23:44:00,SystemResetWarning,0818.6,4.98,000.00,029.5,027.4,000.0,038.1,030.8,013.7,0000.0,0003.96,0013.97,0002.76
2024-05-23 23:45:00,SystemResetWarning,0818.4,5.02,000.00,029.5,027.8,000.0,038.1,031.0,013.8,0000.0,0003.94,0013.33,0002.76
2024-05-23 23:46:00,SystemResetWarning,0818.4,5.01,000.00,029.6,028.1,000.0,038.0,031.1,013.7,0000.0,0003.94,0012.92,0002.76
2024-05-23 23:47:00,SystemResetWarning,0818.4,4.99,000.00,029.6,028.4,000.0,038.0,031.2,013.6,0000.0,0003.95,0012.95,0002.78
2024-05-23 23:48:00,SystemResetWarning,0818.4,5.00,000.00,029.7,028.6,000.0,038.0,031.3,013.5,0000.0,0003.97,0012.18,0002.79
2024-05-23 23:49:00,SystemResetWarning,0818.4,5.00,000.00,029.7,028.8,000.0,038.0,031.4,013.4,0000.0,0004.00,0011.93,0002.82
2024-05-23 23:50:00,SystemResetWarning,0818.5,5.00,000.00,029.8,028.9,000.0,038.0,031.5,013.4,0000.0,0004.02,0012.44,0002.84
2024-05-23 23:51:00,SystemResetWarning,0818.6,5.01,000.00,029.8,029.1,000.0,038.0,031.6,013.4,0000.0,0004.00,0012.78,0002.83
2024-05-23 23:52:00,SystemResetWarning,0818.7,5.01,000.00,029.9,029.2,000.0,038.0,031.7,013.6,0000.0,0004.00,0012.37,0002.86
2024-05-23 23:53:00,SystemResetWarning,0818.6,5.00,000.00,030.0,029.3,000.0,038.1,031.7,013.8,0000.0,0004.01,0011.68,0002.88
2024-05-23 23:54:00,SystemResetWarning,0818.5,5.00,000.00,030.0,029.4,000.0,038.1,031.8,013.8,0000.0,0004.04,0011.16,0002.88
2024-05-23 23:55:00,SystemResetWarning,0818.6,4.99,000.00,030.1,029.5,000.0,038.1,031.8,013.8,0000.0,0004.05,0010.34,0002.86
2024-05-23 23:56:00,SystemResetWarning,0818.6,4.99,000.00,030.1,029.6,000.0,038.2,031.9,013.5,0000.0,0004.07,0010.17,0002.85
2024-05-23 23:57:00,SystemResetWarning,0818.7,5.01,000.00,030.2,029.7,000.0,038.2,032.0,013.1,0000.0,0004.08,0010.10,0002.85
2024-05-23 23:58:00,SystemResetWarning,0818.8,5.01,000.00,030.2,029.7,000.0,038.2,032.0,013.6,0000.0,0004.00,0009.66,0002.83
2024-05-23 23:59:00,SystemResetWarning,0818.8,4.98,000.00,030.1,028.3,000.0,038.3,031.2,013.4,0000.0,0003.95,0009.51,0002.83
